#timestamp,LO_Frequency,Hit,StdDev 
1594098015.4,286046999.7,N
1594098035.3,286047003.2,N
1594098055.1,286047001.5,N
1594098075.8,286047002.4,N
1594098095.7,286047000.6,N
1594098115.5,286046999.7,N
1594098135.4,286047000.6,N
1594098155.2,286047000.8,N
1594098175.0,286047004.0,N
1594098175.9,286047004.0,N
1594098195.8,286047007.2,Y
1594098215.6,286047005.3,P
1594098235.5,286047005.4,N
1594098255.3,286047001.3,N
1594098275.1,286047001.3,N
1594098295.9,286047006.0,N
1594098315.7,286047007.1,N
1594098335.6,286047007.1,N
1594098355.4,286047007.3,N
1594098375.2,286047006.2,N
1594098395.1,286047005.7,N
1594098396.0,286047005.7,N
1594098415.8,286047004.8,N
1594098435.7,286047003.5,N
1594098455.5,286047004.3,N
1594098475.4,286047004.0,N
1594098495.2,286047003.6,N
1594098515.0,286047001.5,N
1594098515.9,286047001.5,N
1594098535.8,286047007.5,Y
1594098555.6,286047001.5,P
1594098575.4,286047000.4,N
1594098595.3,286047000.2,N
1594098615.1,286047001.1,N
1594098635.9,286046997.4,N
1594098655.7,286046995.1,N
1594098675.5,286046998.1,N
1594098695.4,286046998.2,N
1594098715.2,286046996.9,N
1594098735.1,286046996.8,N
1594098736.0,286046996.8,N
1594098755.8,286046999.3,N
1594098775.6,286046997.9,N
1594098795.5,286046994.9,N
1594098815.3,286046997.0,N
1594098835.1,286046998.7,N
1594098855.9,286046996.6,N
1594098875.7,286046999.2,N
1594098895.6,286046996.6,N
1594098915.4,286046995.1,N
1594098935.2,286046995.1,N
1594098955.1,286046995.9,N
1594098956.0,286046995.9,N
1594098975.8,286046994.6,N
1594098995.7,286046993.9,N
1594099015.5,286046993.7,N
1594099035.3,286046993.9,N
1594099055.2,286046991.7,Y
1594099075.0,286046996.0,P
1594099075.9,286046996.0,P
1594099095.8,286046996.1,P
1594099115.6,286046996.1,Y
1594099135.4,286047000.9,P
1594099155.3,286047000.0,N
1594099175.1,286046998.3,N
1594099195.8,286046998.6,N
1594099215.7,286047002.2,N
1594099235.5,286047001.4,N
1594099255.4,286047003.7,N
1594099275.2,286047002.4,N
1594099295.0,286047002.3,N
1594099295.9,286047002.3,N
1594099315.8,286047002.3,N
1594099335.6,286047006.0,N
1594099355.5,286047006.0,N
1594099375.3,286047003.0,N
1594099395.1,286047003.4,N
1594099415.9,286047001.8,N
1594099435.7,286047001.4,N
1594099455.6,286047002.3,N
1594099475.4,286046999.7,N
1594099495.2,286047002.4,N
1594099515.1,286047002.7,N
1594099516.0,286047002.7,N
1594099535.8,286047002.5,N
1594099555.6,286047000.0,N
1594099575.5,286047001.3,N
1594099595.3,286047001.6,N
1594099615.2,286047000.3,N
1594099635.9,286047001.0,N
1594099655.7,286047002.5,N
1594099675.6,286047007.7,Y
1594099695.4,286047004.6,P
1594099715.3,286047003.6,N
1594099735.1,286047002.1,N
1594099736.0,286047002.1,N
1594099755.8,286046999.7,N
1594099775.7,286047002.4,N
1594099795.5,286046999.8,N
1594099815.4,286047000.2,N
1594099835.2,286047001.0,N
1594099855.0,286046998.4,N
1594099855.9,286046998.4,N
1594099875.8,286047001.2,N
1594099895.6,286046998.7,N
1594099915.5,286046998.8,N
1594099935.3,286047001.1,N
1594099955.1,286047001.0,N
1594099975.9,286046998.5,N
1594099995.7,286046998.3,N
1594100015.5,286046999.1,N
1594100035.4,286046999.3,N
1594100055.2,286047001.1,N
1594100075.1,286046998.4,N
1594100076.0,286046998.4,N
1594100095.8,286047002.1,N
1594100115.6,286047001.4,N
1594100135.5,286047003.9,N
1594100155.3,286047002.5,N
1594100175.1,286047002.5,N
1594100195.9,286047001.7,N
1594100215.4,286047001.9,N
1594100235.2,286047000.0,N
1594100255.1,286047000.4,N
1594100256.0,286047000.4,N
1594100275.8,286047000.1,N
1594100295.7,286047002.6,N
1594100315.5,286047001.9,N
1594100335.3,286047004.0,N
1594100355.2,286047001.9,N
1594100375.0,286047004.1,N
1594100375.9,286047004.1,N
1594100395.8,286047005.9,Y
1594100415.6,286047005.6,P
1594100435.4,286047004.7,N
1594100455.3,286047007.9,P
1594100475.1,286047007.6,Y
1594100495.9,286047000.3,P
1594100515.7,286047000.0,N
1594100535.5,286047001.0,N
1594100555.4,286047000.9,N
1594100575.2,286046996.7,N
1594100595.0,286047000.0,N
1594100595.9,286047000.0,N
1594100615.8,286047000.6,N
1594100635.6,286046999.2,N
1594100655.5,286046999.1,N
1594100675.3,286046998.3,N
1594100695.1,286046996.7,N
1594100715.9,286047001.7,N
1594100735.7,286047003.4,N
1594100755.6,286047004.2,N
1594100775.4,286047004.2,N
1594100795.2,286047004.1,N
1594100815.1,286047002.6,N
1594100816.0,286047002.6,N
1594100835.8,286046999.9,N
1594100855.7,286047000.7,N
1594100875.5,286047002.3,N
1594100895.3,286047003.9,N
1594100915.2,286047000.4,N
1594100935.0,286047000.7,N
1594100935.9,286047000.7,N
1594100955.7,286046998.1,N
1594100975.6,286046998.3,N
1594100995.4,286047000.0,N
1594101015.3,286046998.6,N
1594101035.1,286046998.7,N
1594101055.8,286047000.1,N
1594101075.7,286047000.1,N
1594101095.5,286047000.3,N
1594101115.4,286047001.0,N
1594101135.2,286046998.2,N
1594101155.0,286046999.8,N
1594101155.9,286046999.8,N
1594101175.8,286047003.2,N
1594101195.6,286047003.0,N
1594101215.5,286047001.8,N
1594101235.3,286047007.5,Y
1594101255.1,286047004.9,P
1594101275.9,286047005.9,N
1594101295.7,286047006.0,N
1594101315.5,286047004.4,N
1594101335.4,286047002.8,N
1594101355.2,286046999.8,N
1594101375.1,286047004.1,N
1594101376.0,286047004.1,N
1594101395.8,286047005.4,N
1594101415.6,286047006.8,Y
1594101435.5,286047001.8,P
1594101455.3,286047000.0,N
1594101475.2,286047002.4,N
1594101495.9,286047003.9,N
1594101515.7,286047000.8,N
1594101535.6,286046998.1,N
1594101555.4,286046996.6,N
1594101575.3,286046999.0,N
1594101595.1,286047001.1,N
1594101596.0,286047001.1,N
